DW7857 Weather Reports


Display with metric or nautical units.
time (UTC)temp
F
wind
direction
speed
MPH
gust
MPH
rain 1hr
in
rain 24hr
in
rain mn
in
humidity
%
barometer
mb
20260510053603 47 13 7.0 10.0 0.00 0.00 0.00 82 1015.6
20260510052912 47 47 7.0 8.0 0.00 0.00 0.00 82 1015.7
20260510051803 47 45 6.0 7.0 0.00 0.00 0.00 82 1015.5
20260510050903 46 51 6.0 7.0 0.00 0.00 0.00 81 1015.7
20260510050004 46 60 6.0 8.0 0.00 0.00 0.00 80 1015.7
20260510045614 46 51 5.0 8.0 0.00 0.00 0.00 80 1015.6
20260510044713 47 16 6.0 8.0 0.00 0.00 0.00 80 1015.8
20260510043603 47 67 6.0 7.0 0.00 0.00 0.00 79 1015.8
20260510042703 47 52 7.0 10.0 0.00 0.00 0.00 78 1015.7
20260510041804 47 72 8.0 11.0 0.00 0.00 0.00 76 1015.9
20260510040903 47 29 7.0 11.0 0.00 0.00 0.00 74 1015.7
20260510040003 47 71 7.0 12.0 0.00 0.00 0.00 72 1015.7
20260510035403 47 71 7.0 12.0 0.00 0.00 0.00 72 1015.7
20260510034503 48 40 7.0 8.0 0.00 0.00 0.00 71 1015.6
20260510033603 48 38 6.0 7.0 0.00 0.00 0.00 70 1015.9
20260510032913 48 83 6.0 9.0 0.00 0.00 0.00 69 1016.0
20260510031803 49 34 8.0 10.0 0.00 0.00 0.00 68 1015.9
20260510030903 49 27 6.0 8.0 0.00 0.00 0.00 67 1015.8
20260510030003 50 43 6.0 8.0 0.00 0.00 0.00 65 1015.9
20260510025403 50 35 7.0 11.0 0.00 0.00 0.00 65 1015.9
20260510024712 50 50 7.0 11.0 0.00 0.00 0.00 64 1015.9
20260510023603 51 33 7.0 9.0 0.00 0.00 0.00 63 1015.9
20260510022703 51 78 8.0 11.0 0.00 0.00 0.00 62 1015.9
20260510022013 51 75 7.0 9.0 0.00 0.00 0.00 62 1015.8
20260510020903 51 61 6.0 11.0 0.00 0.00 0.00 63 1015.9
20260510020003 51 58 5.0 7.0 0.00 0.00 0.00 65 1015.8
20260510015403 51 54 6.0 9.0 0.00 0.00 0.00 66 1015.7
20260510014714 51 85 5.0 6.0 0.00 0.00 0.00 69 1015.7
20260510013814 52 51 4.0 6.0 0.00 0.00 0.00 70 1015.6
20260510012703 52 73 4.0 6.0 0.00 0.00 0.00 71 1015.7
20260510012014 52 58 4.0 5.0 0.00 0.00 0.00 72 1015.8
20260510010903 52 57 3.0 4.0 0.00 0.00 0.00 74 1015.7
20260510010003 53 42 4.0 4.0 0.00 0.00 0.00 75 1015.8
20260510005403 53 53 3.0 4.0 0.00 0.00 0.00 75 1015.7
20260510004503 53 93 3.0 4.0 0.00 0.00 0.00 76 1015.7
20260510003603 53 56 2.0 4.0 0.00 0.00 0.00 76 1015.7
20260510002703 53 50 2.0 4.0 0.00 0.00 0.00 77 1015.9
20260510001803 54 39 3.0 4.0 0.00 0.00 0.00 77 1015.9
20260510000903 54 71 3.0 4.0 0.00 0.00 0.00 77 1015.9
20260510000004 54 34 4.0 5.0 0.00 0.00 0.00 77 1015.8
20260509235403 54 78 3.0 4.0 0.00 0.00 0.00 77 1015.9
20260509234713 54 71 3.0 4.0 0.00 0.00 0.00 77 1015.8
20260509233603 54 74 3.0 4.0 0.00 0.00 0.00 75 1015.9
20260509232703 55 68 3.0 4.0 0.00 0.00 0.00 75 1015.5
20260509231803 55 58 3.0 4.0 0.00 0.00 0.00 76 1015.5
20260509230903 55 57 3.0 4.0 0.00 0.00 0.00 77 1015.6
20260509230004 55 60 3.0 4.0 0.00 0.00 0.00 76 1015.5
20260509225403 55 67 3.0 4.0 0.00 0.00 0.00 76 1015.4
20260509224503 55 81 4.0 5.0 0.00 0.00 0.00 76 1015.4
20260509223603 55 78 3.0 4.0 0.00 0.00 0.00 75 1015.5
20260509222703 55 27 4.0 6.0 0.00 0.00 0.00 75 1015.4
20260509221803 56 354 5.0 8.0 0.00 0.00 0.00 74 1015.4
20260509220903 56 54 4.0 5.0 0.00 0.00 0.00 73 1015.6
20260509220003 56 67 4.0 5.0 0.00 0.00 0.00 72 1015.7
20260509215403 56 31 4.0 5.0 0.00 0.00 0.00 72 1015.6
20260509214503 57 23 3.0 4.0 0.00 0.00 0.00 71 1015.5
20260509213603 57 78 4.0 6.0 0.00 0.00 0.00 70 1015.8
20260509212703 57 29 4.0 6.0 0.00 0.00 0.00 67 1015.4
20260509211803 57 17 3.0 4.0 0.00 0.00 0.00 64 1015.2
20260509211114 58 78 5.0 8.0 0.00 0.00 0.00 63 1015.2
20260509210004 58 79 3.0 5.0 0.00 0.00 0.00 62 1015.0
20260509205403 58 64 2.0 5.0 0.00 0.00 0.00 62 1015.1
20260509204503 59 16 2.0 3.0 0.00 0.00 0.00 61 1015.0
20260509203603 59 87 2.0 3.0 0.00 0.00 0.00 61 1014.8
20260509202913 60 53 2.0 4.0 0.00 0.00 0.00 60 1015.0
20260509201803 61 37 2.0 3.0 0.00 0.00 0.00 58 1015.0
20260509200903 61 44 3.0 4.0 0.00 0.00 0.00 56 1014.8
20260509200003 62 21 3.0 4.0 0.00 0.00 0.00 55 1014.7
20260509195403 62 53 3.0 4.0 0.00 0.00 0.00 55 1014.6
20260509194503 63 65 3.0 4.0 0.00 0.00 0.00 53 1014.5
20260509193603 63 82 3.0 4.0 0.00 0.00 0.00 53 1014.3
20260509192703 64 34 4.0 6.0 0.00 0.00 0.00 50 1014.2
20260509191803 64 59 4.0 6.0 0.00 0.00 0.00 48 1014.4
20260509190903 65 28 5.0 6.0 0.00 0.00 0.00 47 1014.4
20260509190003 65 58 5.0 6.0 0.00 0.00 0.00 46 1014.2
20260509185403 66 30 5.0 8.0 0.00 0.00 0.00 47 1014.5
20260509184503 66 53 5.0 7.0 0.00 0.00 0.00 47 1014.2
20260509183603 66 43 5.0 8.0 0.00 0.00 0.00 47 1014.3
20260509182914 66 59 6.0 8.0 0.00 0.00 0.00 48 1014.2
20260509182013 66 99 6.0 8.0 0.00 0.00 0.00 47 1014.3
20260509181113 67 61 6.0 9.0 0.00 0.00 0.00 46 1014.0
20260509180003 67 96 6.0 8.0 0.00 0.00 0.00 45 1014.1
20260509175403 67 54 6.0 8.0 0.00 0.00 0.00 45 1014.3
20260509174503 68 90 6.0 9.0 0.00 0.00 0.00 44 1014.0
20260509173603 68 68 6.0 8.0 0.00 0.00 0.00 43 1013.9
20260509172703 69 50 6.0 8.0 0.00 0.00 0.00 42 1014.0
20260509171803 69 68 5.0 8.0 0.00 0.00 0.00 43 1013.9
20260509170903 69 41 7.0 9.0 0.00 0.00 0.00 42 1014.0
20260509170003 69 48 6.0 9.0 0.00 0.00 0.00 41 1014.1
20260509165613 70 56 6.0 8.0 0.00 0.00 0.00 41 1014.1
20260509164503 70 75 6.0 8.0 0.00 0.00 0.00 41 1014.1
20260509163603 70 17 5.0 8.0 0.00 0.00 0.00 42 1014.3
20260509162703 69 32 7.0 11.0 0.00 0.00 0.00 42 1013.9
20260509161803 70 88 5.0 8.0 0.00 0.00 0.00 41 1014.2
20260509160903 69 57 6.0 8.0 0.00 0.00 0.00 42 1014.4
20260509160003 68 69 7.0 11.0 0.00 0.00 0.00 42 1014.4
20260509155403 69 79 6.0 11.0 0.00 0.00 0.00 41 1014.3
20260509154503 69 90 7.0 9.0 0.00 0.00 0.00 43 1014.1
20260509153603 69 83 7.0 8.0 0.00 0.00 0.00 41 1014.2
20260509152703 70 91 5.0 8.0 0.00 0.00 0.00 42 1014.4
20260509151803 70 56 6.0 11.0 0.00 0.00 0.00 42 1014.5
20260509150903 72 47 7.0 11.0 0.00 0.00 0.00 41 1014.3
20260509150003 73 43 5.0 7.0 0.00 0.00 0.00 39 1014.5
20260509145403 72 47 7.0 11.0 0.00 0.00 0.00 42 1014.6
20260509144503 72 47 7.0 11.0 0.00 0.00 0.00 41 1014.5
20260509143603 72 105 5.0 9.0 0.00 0.00 0.00 42 1014.7
20260509142703 72 65 5.0 9.0 0.00 0.00 0.00 38 1014.6
20260509141803 72 43 7.0 11.0 0.00 0.00 0.00 41 1014.9
20260509140903 72 11 6.0 11.0 0.00 0.00 0.00 43 1014.7
20260509140213 71 44 6.0 8.0 0.00 0.00 0.00 44 1014.9
20260509135614 72 31 6.0 10.0 0.00 0.00 0.00 43 1015.0
20260509134714 72 34 6.0 10.0 0.00 0.00 0.00 43 1014.7
20260509133603 72 97 7.0 10.0 0.00 0.00 0.00 44 1014.7
20260509132703 71 51 6.0 8.0 0.00 0.00 0.00 48 1014.7
20260509132014 69 103 5.0 8.0 0.00 0.00 0.00 48 1014.8
20260509130903 69 48 5.0 8.0 0.00 0.00 0.00 47 1014.9
20260509130003 70 58 5.0 9.0 0.00 0.00 0.00 47 1015.0
20260509125403 70 25 7.0 11.0 0.00 0.00 0.00 49 1014.9
20260509124503 71 359 6.0 11.0 0.00 0.00 0.00 46 1014.8
20260509123603 71 45 6.0 10.0 0.00 0.00 0.00 50 1014.9
20260509122703 70 18 5.0 6.0 0.00 0.00 0.00 53 1014.9
20260509121803 67 47 5.0 7.0 0.00 0.00 0.00 53 1015.2
20260509120903 67 60 4.0 6.0 0.00 0.00 0.00 54 1015.3
20260509120003 67 52 4.0 7.0 0.00 0.00 0.00 52 1015.4
20260509115613 67 6 5.0 7.0 0.00 0.00 0.00 51 1015.5
20260509114503 67 69 5.0 8.0 0.00 0.00 0.00 53 1015.4
20260509113603 67 40 5.0 8.0 0.00 0.00 0.00 53 1015.6
20260509112703 67 18 5.0 7.0 0.00 0.00 0.00 54 1015.6
20260509111803 66 78 5.0 6.0 0.00 0.00 0.00 55 1015.6
20260509110903 66 33 5.0 6.0 0.00 0.00 0.00 56 1015.8
20260509110003 65 48 4.0 6.0 0.00 0.00 0.00 58 1015.7
20260509105403 65 72 4.0 6.0 0.00 0.00 0.00 59 1015.9
20260509104503 64 6 4.0 6.0 0.00 0.00 0.00 57 1016.1
20260509103603 64 66 4.0 5.0 0.00 0.00 0.00 58 1016.0
20260509102703 64 13 5.0 8.0 0.00 0.00 0.00 58 1016.1
20260509101803 64 338 4.0 6.0 0.00 0.00 0.00 59 1016.2
20260509100903 63 12 4.0 5.0 0.00 0.00 0.00 62 1016.3
20260509100004 63 354 4.0 5.0 0.00 0.00 0.00 62 1016.0
20260509095403 62 9 4.0 7.0 0.00 0.00 0.00 62 1016.4
20260509094714 62 355 4.0 7.0 0.00 0.00 0.00 62 1016.1
20260509093603 62 68 4.0 5.0 0.00 0.00 0.00 62 1016.3
20260509092703 62 101 4.0 6.0 0.00 0.00 0.00 63 1016.2
20260509091803 61 1 5.0 5.0 0.00 0.00 0.00 63 1016.0
20260509090903 60 65 4.0 5.0 0.00 0.00 0.00 64 1016.3
20260509090004 59 356 4.0 5.0 0.00 0.00 0.00 64 1016.2
20260509085403 59 345 3.0 5.0 0.00 0.00 0.00 65 1016.2
20260509084714 58 46 3.0 5.0 0.00 0.00 0.00 66 1016.2
20260509083603 58 24 4.0 5.0 0.00 0.00 0.00 66 1016.3
20260509082703 57 52 4.0 7.0 0.00 0.00 0.00 67 1016.2
20260509081803 56 17 4.0 6.0 0.00 0.00 0.00 67 1016.4
20260509080903 56 348 4.0 6.0 0.00 0.00 0.00 66 1016.3
20260509080212 56 49 3.0 4.0 0.00 0.00 0.00 67 1016.3
20260509075403 55 61 3.0 5.0 0.00 0.00 0.00 68 1016.4
20260509074503 55 51 3.0 4.0 0.00 0.00 0.00 67 1016.0
20260509073603 55 51 3.0 5.0 0.00 0.00 0.00 68 1016.4
20260509072703 54 54 3.0 4.0 0.00 0.00 0.00 68 1016.3
20260509071803 54 66 3.0 4.0 0.00 0.00 0.00 71 1016.4
20260509070903 54 68 3.0 4.0 0.00 0.00 0.00 72 1016.2
20260509070003 54 73 4.0 6.0 0.00 0.00 0.00 71 1016.1
20260509065403 54 65 4.0 5.0 0.00 0.00 0.00 71 1015.9
20260509064503 54 51 3.0 4.0 0.00 0.00 0.00 72 1016.3
20260509063812 54 50 3.0 4.0 0.00 0.00 0.00 72 1016.2
20260509062703 53 56 3.0 4.0 0.00 0.00 0.00 74 1016.0
20260509061803 53 54 2.0 3.0 0.00 0.00 0.00 79 1016.0
20260509060926 51 56 2.0 2.0 0.00 0.00 0.00 83 1015.9
20260509060004 49 56 2.0 3.0 0.00 0.00 0.00 85 1015.9
20260509055404 49 49 2.0 3.0 0.00 0.00 0.00 87 1015.7
20260509054712 48 45 2.0 3.0 0.00 0.00 0.00 88 1015.8